TimeMDT,TemperatureF,Dew PointF,Humidity,Sea Level PressureIn,VisibilityMPH,Wind Direction,Wind SpeedMPH,Gust SpeedMPH,PrecipitationIn,Events,Conditions,WindDirDegrees,DateUTC
12:53 AM,64.9,46.0,50,29.71,10.0,South,8.1,-,N/A,,Clear,190,2013-05-25 06:53:00
1:53 AM,54.0,52.0,93,29.78,7.0,SW,20.7,-,N/A,,Clear,220,2013-05-25 07:53:00
2:53 AM,57.0,54.0,89,29.77,9.0,WSW,18.4,-,N/A,,Clear,240,2013-05-25 08:53:00
3:53 AM,57.9,54.0,87,29.78,10.0,WSW,17.3,-,N/A,,Clear,250,2013-05-25 09:53:00
4:53 AM,57.0,54.0,89,29.80,10.0,SW,12.7,-,N/A,,Clear,230,2013-05-25 10:53:00
5:53 AM,55.0,52.0,89,29.84,7.0,Variable,4.6,-,N/A,,Clear,0,2013-05-25 11:53:00
6:53 AM,57.0,55.0,93,29.86,7.0,NW,4.6,-,N/A,,Clear,320,2013-05-25 12:53:00
7:05 AM,57.2,55.4,94,30.00,1.8,NW,4.6,-,N/A,,Partly Cloudy,320,2013-05-25 13:05:00
7:13 AM,57.2,55.4,94,30.00,3.0,NNW,4.6,-,N/A,,Partly Cloudy,330,2013-05-25 13:13:00
7:30 AM,57.2,55.4,94,30.00,1.5,NW,6.9,-,N/A,,Mostly Cloudy,310,2013-05-25 13:30:00
7:32 AM,57.2,55.4,94,30.00,0.8,WNW,6.9,-,N/A,,Mist,300,2013-05-25 13:32:00
7:47 AM,57.2,55.4,94,30.01,1.2,NW,6.9,-,N/A,,Mostly Cloudy,310,2013-05-25 13:47:00
7:53 AM,57.0,55.9,96,29.88,0.5,NW,6.9,-,N/A,Fog,Fog,310,2013-05-25 13:53:00
8:49 AM,59.0,57.2,94,30.02,1.2,NNW,5.8,-,N/A,,Overcast,330,2013-05-25 14:49:00
8:53 AM,60.1,57.0,90,29.91,3.0,NNE,4.6,-,N/A,,Overcast,30,2013-05-25 14:53:00
9:23 AM,62.6,57.2,82,30.01,8.0,NW,4.6,-,N/A,,Scattered Clouds,310,2013-05-25 15:23:00
9:53 AM,64.9,57.0,75,29.88,9.0,Calm,Calm,-,N/A,,Clear,0,2013-05-25 15:53:00
10:53 AM,71.1,57.0,61,29.86,10.0,Calm,Calm,-,N/A,,Clear,0,2013-05-25 16:53:00
11:53 AM,75.9,55.0,48,29.83,10.0,SE,6.9,-,N/A,,Clear,140,2013-05-25 17:53:00
12:53 PM,79.0,57.0,47,29.80,10.0,SE,5.8,-,N/A,,Clear,130,2013-05-25 18:53:00
1:53 PM,82.0,53.1,37,29.80,10.0,East,6.9,-,N/A,,Clear,100,2013-05-25 19:53:00
2:53 PM,84.9,43.0,23,29.76,10.0,Variable,3.5,-,N/A,,Clear,0,2013-05-25 20:53:00
3:53 PM,86.0,37.9,18,29.74,10.0,South,3.5,-,N/A,,Clear,170,2013-05-25 21:53:00
4:53 PM,84.0,39.0,20,29.72,10.0,East,8.1,-,N/A,,Clear,100,2013-05-25 22:53:00
5:53 PM,84.9,37.9,19,29.70,10.0,ESE,9.2,-,N/A,,Clear,110,2013-05-25 23:53:00
6:53 PM,82.9,45.0,26,29.69,10.0,East,13.8,-,N/A,,Clear,80,2013-05-26 00:53:00
7:53 PM,75.9,50.0,40,29.72,10.0,ESE,18.4,25.3,N/A,,Clear,110,2013-05-26 01:53:00
8:53 PM,68.0,52.0,56,29.74,10.0,ESE,10.4,-,N/A,,Clear,110,2013-05-26 02:53:00
9:53 PM,64.9,52.0,63,29.74,10.0,ESE,10.4,-,N/A,,Clear,110,2013-05-26 03:53:00
10:53 PM,64.0,53.1,67,29.73,10.0,ESE,13.8,-,N/A,,Clear,110,2013-05-26 04:53:00
11:53 PM,63.0,54.0,72,29.70,10.0,SE,12.7,-,N/A,,Clear,130,2013-05-26 05:53:00